,,PA_Meas_PMT16A,,PR_Meas_QMR101_102,,RH_Meas_QMH101,,SR_Meas_QMS101,,TA_Meas_QMH101,,GenWind,,GenWind,
time,status,PA,status,PR,status,RH,status,SR,status,TA,status,DirAvg,status,SpdAvg,
2013-10-18, 00:00:05,VALID,917.788,VALID,0,VALID,96.703,VALID,0,VALID,20.9706,VALID,127,VALID,0,
2013-10-18, 00:01:05,VALID,917.756,VALID,0,VALID,96.6954,VALID,0,VALID,20.9706,VALID,127,VALID,0,
2013-10-18, 00:02:05,VALID,917.771,VALID,0,VALID,96.703,VALID,0,VALID,20.9495,VALID,127,VALID,0,
2013-10-18, 00:03:05,VALID,917.764,VALID,0,VALID,96.7107,VALID,0,VALID,20.9706,VALID,127,VALID,0,
2013-10-18, 00:04:05,VALID,917.745,VALID,0,VALID,96.703,VALID,0,VALID,20.9901,VALID,127,VALID,0,
2013-10-18, 00:05:05,VALID,917.703,VALID,0,VALID,96.6954,VALID,0,VALID,20.9901,VALID,127,VALID,0,
2013-10-18, 00:06:05,VALID,917.679,VALID,0,VALID,96.703,VALID,0,VALID,20.9901,VALID,127,VALID,0,
2013-10-18, 00:07:05,VALID,917.689,VALID,0,VALID,96.6725,VALID,0,VALID,21.0096,VALID,127,VALID,0,
2013-10-18, 00:08:05,VALID,917.711,VALID,0,VALID,96.703,VALID,0,VALID,21.0096,VALID,127,VALID,0,
2013-10-18, 00:09:05,VALID,917.653,VALID,0,VALID,96.6954,VALID,0,VALID,21.008,VALID,127,VALID,0,
2013-10-18, 00:10:05,VALID,917.663,VALID,0,VALID,96.6954,VALID,0,VALID,21.0096,VALID,127,VALID,0,
2013-10-18, 00:11:05,VALID,917.652,VALID,0,VALID,96.6649,VALID,0,VALID,20.9885,VALID,127,VALID,0,
2013-10-18, 00:12:05,VALID,917.666,VALID,0,VALID,96.6954,VALID,0,VALID,21.0096,VALID,104,VALID,0,
2013-10-18, 00:13:05,VALID,917.675,VALID,0,VALID,96.6802,VALID,0,VALID,20.9706,VALID,101,VALID,0,
2013-10-18, 00:14:05,VALID,917.642,VALID,0,VALID,96.6954,VALID,0,VALID,20.9511,VALID,65,VALID,0,
2013-10-18, 00:15:05,VALID,917.654,VALID,0,VALID,96.6725,VALID,0,VALID,20.912,VALID,65,VALID,0,
2013-10-18, 00:16:05,VALID,917.632,VALID,0,VALID,96.6802,VALID,0,VALID,20.8925,VALID,65,VALID,0,
2013-10-18, 00:17:05,VALID,917.613,VALID,0,VALID,96.6878,VALID,0,VALID,20.873,VALID,65,VALID,0,
2013-10-18, 00:18:05,VALID,917.653,VALID,0,VALID,96.6878,VALID,0,VALID,20.873,VALID,65,VALID,0,
2013-10-18, 00:19:05,VALID,917.611,VALID,0,VALID,96.703,VALID,0,VALID,20.8519,VALID,65,VALID,0,
2013-10-18, 00:20:05,VALID,917.599,VALID,0,VALID,96.703,VALID,0,VALID,20.8925,VALID,65,VALID,0,
2013-10-18, 00:21:05,VALID,917.595,VALID,0,VALID,96.703,VALID,0,VALID,20.873,VALID,65,VALID,0,
2013-10-18, 00:22:05,VALID,917.563,VALID,0,VALID,96.7107,VALID,0,VALID,20.8925,VALID,65,VALID,0,
2013-10-18, 00:23:05,VALID,917.568,VALID,0,VALID,96.703,VALID,0,VALID,20.912,VALID,65,VALID,0,
2013-10-18, 00:24:05,VALID,917.555,VALID,0,VALID,96.6878,VALID,0,VALID,20.891,VALID,65,VALID,0,
2013-10-18, 00:25:05,VALID,917.584,VALID,0,VALID,96.6954,VALID,0,VALID,20.912,VALID,65,VALID,0,
2013-10-18, 00:26:05,VALID,917.547,VALID,0,VALID,96.6954,VALID,0,VALID,20.9316,VALID,65,VALID,0,
2013-10-18, 00:27:05,VALID,917.516,VALID,0,VALID,96.7107,VALID,0,VALID,20.9316,VALID,65,VALID,0,
2013-10-18, 00:28:05,VALID,917.524,VALID,0,VALID,96.7183,VALID,0,VALID,20.912,VALID,65,VALID,0,
2013-10-18, 00:29:05,VALID,917.505,VALID,0,VALID,96.7335,VALID,0,VALID,20.9316,VALID,65,VALID,0,
2013-10-18, 00:30:05,VALID,917.493,VALID,0,VALID,96.7107,VALID,0,VALID,20.912,VALID,65,VALID,0,
2013-10-18, 00:31:05,VALID,917.478,VALID,0,VALID,96.703,VALID,0,VALID,20.912,VALID,65,VALID,0,
2013-10-18, 00:32:05,VALID,917.461,VALID,0,VALID,96.6954,VALID,0,VALID,20.8925,VALID,65,VALID,0,
2013-10-18, 00:33:05,VALID,917.451,VALID,0,VALID,96.7107,VALID,0,VALID,20.8925,VALID,65,VALID,0,
2013-10-18, 00:34:05,VALID,917.414,VALID,0,VALID,96.703,VALID,0,VALID,20.8925,VALID,48,VALID,0,
2013-10-18, 00:35:05,VALID,917.416,VALID,0,VALID,96.7259,VALID,0,VALID,20.912,VALID,46,VALID,0,
2013-10-18, 00:36:05,VALID,917.39,VALID,0,VALID,96.7107,VALID,0,VALID,20.8925,VALID,46,VALID,0,
2013-10-18, 00:37:05,VALID,917.356,VALID,0,VALID,96.7183,VALID,0,VALID,20.912,VALID,46,VALID,0,
2013-10-18, 00:38:05,VALID,917.366,VALID,0,VALID,96.7183,VALID,0,VALID,20.9316,VALID,46,VALID,0,
2013-10-18, 00:39:05,VALID,917.336,VALID,0,VALID,96.7259,VALID,0,VALID,20.9105,VALID,46,VALID,0,
2013-10-18, 00:40:05,VALID,917.291,VALID,0,VALID,96.6954,VALID,0,VALID,20.9316,VALID,46,VALID,0,
2013-10-18, 00:41:05,VALID,917.275,VALID,0,VALID,96.6954,VALID,0,VALID,20.9511,VALID,46,VALID,0,
2013-10-18, 00:42:05,VALID,917.249,VALID,0,VALID,96.7259,VALID,0,VALID,20.9511,VALID,47,VALID,0,
2013-10-18, 00:43:05,VALID,917.211,VALID,0,VALID,96.7259,VALID,0,VALID,20.9706,VALID,47,VALID,0,
2013-10-18, 00:44:05,VALID,917.167,VALID,0,VALID,96.7183,VALID,0,VALID,20.9511,VALID,46,VALID,0,
2013-10-18, 00:45:05,VALID,917.136,VALID,0,VALID,96.7411,VALID,0,VALID,20.9511,VALID,47,VALID,0,
2013-10-18, 00:46:05,VALID,917.109,VALID,0,VALID,96.7259,VALID,0,VALID,20.9511,VALID,47,VALID,0,
2013-10-18, 00:47:05,VALID,917.075,VALID,0,VALID,96.7183,VALID,0,VALID,20.9901,VALID,47,VALID,0,
2013-10-18, 00:48:05,VALID,917.07,VALID,0,VALID,96.7259,VALID,0,VALID,20.9706,VALID,47,VALID,0,
2013-10-18, 00:49:05,VALID,917.07,VALID,0,VALID,96.7183,VALID,0,VALID,20.9495,VALID,46,VALID,0,
2013-10-18, 00:50:05,VALID,917.074,VALID,0,VALID,96.703,VALID,0,VALID,20.9706,VALID,47,VALID,0,
2013-10-18, 00:51:05,VALID,917.058,VALID,0,VALID,96.7183,VALID,0,VALID,20.9706,VALID,47,VALID,0,
2013-10-18, 00:52:05,VALID,917.061,VALID,0,VALID,96.7335,VALID,0,VALID,20.9901,VALID,47,VALID,0,
2013-10-18, 00:53:05,VALID,917.029,VALID,0,VALID,96.7411,VALID,0,VALID,21.0291,VALID,46,VALID,0,
2013-10-18, 00:54:05,VALID,917.046,VALID,0,VALID,96.7488,VALID,0,VALID,21.0307,VALID,46,VALID,0,
2013-10-18, 00:55:05,VALID,917.03,VALID,0,VALID,96.7411,VALID,0,VALID,21.0096,VALID,46,VALID,0,
2013-10-18, 00:56:05,VALID,917.023,VALID,0,VALID,96.7564,VALID,0,VALID,21.0096,VALID,46,VALID,0,
2013-10-18, 00:57:05,VALID,917.017,VALID,0,VALID,96.7411,VALID,0,VALID,21.0291,VALID,46,VALID,0,
2013-10-18, 00:58:05,VALID,916.986,VALID,0,VALID,96.7259,VALID,0,VALID,21.0291,VALID,46,VALID,0,
2013-10-18, 00:59:05,VALID,916.965,VALID,0,VALID,96.7335,VALID,0,VALID,21.0291,VALID,47,VALID,0,
2013-10-18, 01:00:05,VALID,916.925,VALID,0,VALID,96.7259,VALID,0,VALID,21.0291,VALID,47,VALID,0,
2013-10-18, 01:01:05,VALID,916.964,VALID,0,VALID,96.7488,VALID,0,VALID,21.0291,VALID,46,VALID,0,
2013-10-18, 01:02:05,VALID,916.953,VALID,0,VALID,96.7335,VALID,0,VALID,21.0291,VALID,46,VALID,0,
2013-10-18, 01:03:05,VALID,916.959,VALID,0,VALID,96.7564,VALID,0,VALID,21.0307,VALID,46,VALID,0,
2013-10-18, 01:04:05,VALID,916.947,VALID,0,VALID,96.7564,VALID,0,VALID,21.0096,VALID,46,VALID,0,
2013-10-18, 01:05:05,VALID,916.918,VALID,0,VALID,96.7488,VALID,0,VALID,21.0096,VALID,47,VALID,0,
2013-10-18, 01:06:05,VALID,916.919,VALID,0,VALID,96.7488,VALID,0,VALID,21.0291,VALID,46,VALID,0,
2013-10-18, 01:07:05,VALID,916.889,VALID,0,VALID,96.7488,VALID,0,VALID,21.0096,VALID,47,VALID,0,
2013-10-18, 01:08:05,VALID,916.933,VALID,0,VALID,96.7488,VALID,0,VALID,20.9706,VALID,47,VALID,0,
2013-10-18, 01:09:05,VALID,916.906,VALID,0,VALID,96.7488,VALID,0,VALID,20.9706,VALID,46,VALID,0,
2013-10-18, 01:10:05,VALID,916.917,VALID,0,VALID,96.7488,VALID,0,VALID,20.9706,VALID,46,VALID,0,
2013-10-18, 01:11:05,VALID,916.939,VALID,0,VALID,96.7564,VALID,0,VALID,20.9511,VALID,47,VALID,0,
2013-10-18, 01:12:05,VALID,916.918,VALID,0,VALID,96.764,VALID,0,VALID,20.9706,VALID,47,VALID,0,
2013-10-18, 01:13:05,VALID,916.912,VALID,0,VALID,96.7488,VALID,0,VALID,20.9901,VALID,47,VALID,0,
2013-10-18, 01:14:05,VALID,916.894,VALID,0,VALID,96.764,VALID,0,VALID,21.0112,VALID,47,VALID,0,
2013-10-18, 01:15:05,VALID,916.881,VALID,0,VALID,96.7488,VALID,0,VALID,21.0096,VALID,46,VALID,0,
2013-10-18, 01:16:05,VALID,916.834,VALID,0,VALID,96.7564,VALID,0,VALID,21.0502,VALID,47,VALID,0,
2013-10-18, 01:17:05,VALID,916.827,VALID,0,VALID,96.7411,VALID,0,VALID,21.0291,VALID,46,VALID,0,
2013-10-18, 01:18:05,VALID,916.792,VALID,0,VALID,96.7564,VALID,0,VALID,21.0096,VALID,47,VALID,0,
2013-10-18, 01:19:05,VALID,916.766,VALID,0,VALID,96.7716,VALID,0,VALID,20.9901,VALID,47,VALID,0,
2013-10-18, 01:20:05,VALID,916.738,VALID,0,VALID,96.764,VALID,0,VALID,20.9706,VALID,46,VALID,0,
2013-10-18, 01:21:05,VALID,916.713,VALID,0,VALID,96.764,VALID,0,VALID,20.9511,VALID,46,VALID,0,
2013-10-18, 01:22:05,VALID,916.652,VALID,0,VALID,96.764,VALID,0,VALID,20.9511,VALID,46,VALID,0,
2013-10-18, 01:23:05,VALID,916.619,VALID,0,VALID,96.7716,VALID,0,VALID,20.9316,VALID,46,VALID,0,
2013-10-18, 01:24:05,VALID,916.59,VALID,0,VALID,96.7564,VALID,0,VALID,20.9316,VALID,47,VALID,0,
2013-10-18, 01:25:05,VALID,916.594,VALID,0,VALID,96.7716,VALID,0,VALID,20.912,VALID,47,VALID,0,
2013-10-18, 01:26:05,VALID,916.585,VALID,0,VALID,96.7793,VALID,0,VALID,20.8925,VALID,47,VALID,0,
2013-10-18, 01:27:05,VALID,916.574,VALID,0,VALID,96.7793,VALID,0,VALID,20.873,VALID,47,VALID,0,
2013-10-18, 01:28:05,VALID,916.585,VALID,0,VALID,96.7793,VALID,0,VALID,20.9136,VALID,46,VALID,0,
2013-10-18, 01:29:05,VALID,916.578,VALID,0,VALID,96.764,VALID,0,VALID,20.8746,VALID,47,VALID,0,
2013-10-18, 01:30:05,VALID,916.552,VALID,0,VALID,96.7793,VALID,0,VALID,20.873,VALID,47,VALID,0,
2013-10-18, 01:31:05,VALID,916.533,VALID,0,VALID,96.7945,VALID,0,VALID,20.8941,VALID,46,VALID,0,
2013-10-18, 01:32:05,VALID,916.536,VALID,0,VALID,96.7869,VALID,0,VALID,20.873,VALID,47,VALID,0,
2013-10-18, 01:33:04,VALID,916.528,VALID,0,VALID,96.7716,VALID,0,VALID,20.873,VALID,47,VALID,0,
2013-10-18, 01:34:04,VALID,916.504,VALID,0,VALID,96.7869,VALID,0,VALID,20.873,VALID,47,VALID,0,
2013-10-18, 01:35:04,VALID,916.497,VALID,0,VALID,96.7945,VALID,0,VALID,20.8941,VALID,47,VALID,0,
2013-10-18, 01:36:04,VALID,916.495,VALID,0,VALID,96.7716,VALID,0,VALID,20.8535,VALID,72,VALID,0,
2013-10-18, 01:37:04,VALID,916.479,VALID,0,VALID,96.7869,VALID,0,VALID,20.834,VALID,89,VALID,0,
2013-10-18, 01:38:04,VALID,916.485,VALID,0,VALID,96.8021,VALID,0,VALID,20.8145,VALID,89,VALID,0,
2013-10-18, 01:39:04,VALID,916.483,VALID,0,VALID,96.8021,VALID,0,VALID,20.8145,VALID,89,VALID,0,
2013-10-18, 01:40:04,VALID,916.47,VALID,0,VALID,96.7945,VALID,0,VALID,20.8145,VALID,89,VALID,0,
2013-10-18, 01:41:04,VALID,916.447,VALID,0,VALID,96.8174,VALID,0,VALID,20.8161,VALID,89,VALID,0,
2013-10-18, 01:42:04,VALID,916.458,VALID,0,VALID,96.7869,VALID,0,VALID,20.8145,VALID,89,VALID,0,
2013-10-18, 01:43:04,VALID,916.397,VALID,0,VALID,96.8098,VALID,0,VALID,20.795,VALID,89,VALID,0,
2013-10-18, 01:44:04,VALID,916.378,VALID,0,VALID,96.8021,VALID,0,VALID,20.8145,VALID,89,VALID,0,
2013-10-18, 01:45:04,VALID,916.312,VALID,0,VALID,96.7945,VALID,0,VALID,20.8535,VALID,89,VALID,0,
2013-10-18, 01:46:04,VALID,916.32,VALID,0,VALID,96.7869,VALID,0,VALID,20.8535,VALID,89,VALID,0,
2013-10-18, 01:47:04,VALID,916.292,VALID,0,VALID,96.7793,VALID,0,VALID,20.8746,VALID,89,VALID,0,
2013-10-18, 01:48:04,VALID,916.32,VALID,0,VALID,96.7869,VALID,0,VALID,20.834,VALID,75,VALID,0,
2013-10-18, 01:49:04,VALID,916.334,VALID,0,VALID,96.7945,VALID,0,VALID,20.8161,VALID,75,VALID,0,
2013-10-18, 01:50:04,VALID,916.329,VALID,0,VALID,96.8098,VALID,0,VALID,20.8161,VALID,75,VALID,0,
2013-10-18, 01:51:04,VALID,916.3,VALID,0,VALID,96.8021,VALID,0,VALID,20.7755,VALID,75,VALID,0,
2013-10-18, 01:52:04,VALID,916.315,VALID,0,VALID,96.8098,VALID,0,VALID,20.7755,VALID,75,VALID,0,
2013-10-18, 01:53:04,VALID,916.278,VALID,0,VALID,96.825,VALID,0,VALID,20.7771,VALID,75,VALID,0,
2013-10-18, 01:54:04,VALID,916.249,VALID,0,VALID,96.8098,VALID,0,VALID,20.756,VALID,85,VALID,0,
2013-10-18, 01:55:04,VALID,916.224,VALID,0,VALID,96.8174,VALID,0,VALID,20.7365,VALID,85,VALID,0,
2013-10-18, 01:56:04,VALID,916.238,VALID,0,VALID,96.8098,VALID,0,VALID,20.7365,VALID,85,VALID,0,
2013-10-18, 01:57:04,VALID,916.231,VALID,0,VALID,96.8098,VALID,0,VALID,20.7365,VALID,85,VALID,0,
2013-10-18, 01:58:04,VALID,916.211,VALID,0,VALID,96.8174,VALID,0,VALID,20.7365,VALID,85,VALID,0,
2013-10-18, 01:59:04,VALID,916.224,VALID,0,VALID,96.8098,VALID,0,VALID,20.7576,VALID,85,VALID,0,
2013-10-18, 02:00:04,VALID,916.258,VALID,0,VALID,96.8021,VALID,0,VALID,20.717,VALID,85,VALID,0,
2013-10-18, 02:01:04,VALID,916.247,VALID,0,VALID,96.8098,VALID,0,VALID,20.7365,VALID,85,VALID,0,
2013-10-18, 02:02:04,VALID,916.246,VALID,0,VALID,96.8021,VALID,0,VALID,20.7365,VALID,85,VALID,0,
2013-10-18, 02:03:04,VALID,916.246,VALID,0,VALID,96.8174,VALID,0,VALID,20.756,VALID,85,VALID,0,
2013-10-18, 02:04:04,VALID,916.229,VALID,0,VALID,96.8098,VALID,0,VALID,20.7755,VALID,85,VALID,0,
2013-10-18, 02:05:04,VALID,916.218,VALID,0,VALID,96.8174,VALID,0,VALID,20.795,VALID,85,VALID,0,
2013-10-18, 02:06:04,VALID,916.19,VALID,0,VALID,96.8174,VALID,0,VALID,20.7755,VALID,85,VALID,0,
2013-10-18, 02:07:04,VALID,916.181,VALID,0,VALID,96.825,VALID,0,VALID,20.7771,VALID,89,VALID,0,
2013-10-18, 02:08:04,VALID,916.174,VALID,0,VALID,96.8326,VALID,0,VALID,20.7966,VALID,89,VALID,0,
2013-10-18, 02:09:04,VALID,916.19,VALID,0,VALID,96.825,VALID,0,VALID,20.8161,VALID,89,VALID,0,
2013-10-18, 02:10:04,VALID,916.174,VALID,0,VALID,96.825,VALID,0,VALID,20.7755,VALID,142,VALID,0,
2013-10-18, 02:11:04,VALID,916.198,VALID,0,VALID,96.825,VALID,0,VALID,20.756,VALID,203,VALID,0,
2013-10-18, 02:12:04,VALID,916.222,VALID,0,VALID,96.825,VALID,0,VALID,20.7771,VALID,204,VALID,0,
2013-10-18, 02:13:04,VALID,916.231,VALID,0,VALID,96.8174,VALID,0,VALID,20.756,VALID,204,VALID,0,
2013-10-18, 02:14:04,VALID,916.245,VALID,0,VALID,96.8174,VALID,0,VALID,20.756,VALID,204,VALID,0,
2013-10-18, 02:15:04,VALID,916.227,VALID,0,VALID,96.8403,VALID,0,VALID,20.756,VALID,204,VALID,0,
2013-10-18, 02:16:04,VALID,916.234,VALID,0,VALID,96.8174,VALID,0,VALID,20.756,VALID,218,VALID,0,
2013-10-18, 02:17:04,VALID,916.214,VALID,0,VALID,96.825,VALID,0,VALID,20.756,VALID,218,VALID,0,
2013-10-18, 02:18:04,VALID,916.201,VALID,0,VALID,96.8326,VALID,0,VALID,20.756,VALID,218,VALID,0,
2013-10-18, 02:19:04,VALID,916.19,VALID,0,VALID,96.8326,VALID,0,VALID,20.7966,VALID,218,VALID,0,
2013-10-18, 02:20:04,VALID,916.164,VALID,0,VALID,96.8403,VALID,0,VALID,20.7771,VALID,218,VALID,0,
2013-10-18, 02:21:04,VALID,916.195,VALID,0,VALID,96.8326,VALID,0,VALID,20.7966,VALID,218,VALID,0,
2013-10-18, 02:22:04,VALID,916.185,VALID,0,VALID,96.825,VALID,0,VALID,20.795,VALID,218,VALID,0,
2013-10-18, 02:23:04,VALID,916.176,VALID,0,VALID,96.8174,VALID,0,VALID,20.8145,VALID,218,VALID,0,
2013-10-18, 02:24:04,VALID,916.178,VALID,0,VALID,96.8174,VALID,0,VALID,20.8145,VALID,218,VALID,0,
2013-10-18, 02:25:04,VALID,916.167,VALID,0,VALID,96.8479,VALID,0,VALID,20.8145,VALID,218,VALID,0,
2013-10-18, 02:26:04,VALID,916.143,VALID,0,VALID,96.8403,VALID,0,VALID,20.8145,VALID,218,VALID,0,
2013-10-18, 02:27:04,VALID,916.116,VALID,0,VALID,96.825,VALID,0,VALID,20.8145,VALID,218,VALID,0,
2013-10-18, 02:28:04,VALID,916.131,VALID,0,VALID,96.8174,VALID,0,VALID,20.834,VALID,218,VALID,0,
2013-10-18, 02:29:04,VALID,916.136,VALID,0,VALID,96.825,VALID,0,VALID,20.8356,VALID,218,VALID,0,
2013-10-18, 02:30:04,VALID,916.12,VALID,0,VALID,96.8403,VALID,0,VALID,20.795,VALID,218,VALID,0,
2013-10-18, 02:31:04,VALID,916.118,VALID,0,VALID,96.8403,VALID,0,VALID,20.8145,VALID,218,VALID,0,
2013-10-18, 02:32:04,VALID,916.054,VALID,0,VALID,96.8326,VALID,0,VALID,20.8551,VALID,218,VALID,0,
2013-10-18, 02:33:04,VALID,916.076,VALID,0,VALID,96.8403,VALID,0,VALID,20.8551,VALID,218,VALID,0,
2013-10-18, 02:34:04,VALID,916.076,VALID,0,VALID,96.8403,VALID,0,VALID,20.8356,VALID,218,VALID,0,
2013-10-18, 02:35:04,VALID,916.092,VALID,0,VALID,96.8403,VALID,0,VALID,20.834,VALID,218,VALID,0,
2013-10-18, 02:36:04,VALID,916.097,VALID,0,VALID,96.8479,VALID,0,VALID,20.834,VALID,218,VALID,0,
2013-10-18, 02:37:04,VALID,916.093,VALID,0,VALID,96.8403,VALID,0,VALID,20.8535,VALID,218,VALID,0,
2013-10-18, 02:38:04,VALID,916.078,VALID,0,VALID,96.825,VALID,0,VALID,20.873,VALID,218,VALID,0,
2013-10-18, 02:39:04,VALID,916.064,VALID,0,VALID,96.8631,VALID,0,VALID,20.8535,VALID,218,VALID,0,
2013-10-18, 02:40:04,VALID,916.072,VALID,0,VALID,96.8326,VALID,0,VALID,20.8535,VALID,218,VALID,0,
2013-10-18, 02:41:04,VALID,916.097,VALID,0,VALID,96.8326,VALID,0,VALID,20.8145,VALID,202,VALID,0,
2013-10-18, 02:42:04,VALID,916.114,VALID,0,VALID,96.8403,VALID,0,VALID,20.8145,VALID,202,VALID,0,
2013-10-18, 02:43:04,VALID,916.138,VALID,0,VALID,96.8403,VALID,0,VALID,20.8145,VALID,202,VALID,0,
2013-10-18, 02:44:04,VALID,916.096,VALID,0,VALID,96.8479,VALID,0,VALID,20.834,VALID,215,VALID,0,
2013-10-18, 02:45:04,VALID,916.109,VALID,0,VALID,96.8479,VALID,0,VALID,20.795,VALID,215,VALID,0,
2013-10-18, 02:46:04,VALID,916.069,VALID,0,VALID,96.8479,VALID,0,VALID,20.795,VALID,218,VALID,0,
2013-10-18, 02:47:04,VALID,916.09,VALID,0,VALID,96.8631,VALID,0,VALID,20.795,VALID,218,VALID,0,
2013-10-18, 02:48:04,VALID,916.066,VALID,0,VALID,96.8555,VALID,0,VALID,20.795,VALID,218,VALID,0,
2013-10-18, 02:49:04,VALID,916.092,VALID,0,VALID,96.8555,VALID,0,VALID,20.7755,VALID,218,VALID,0,
2013-10-18, 02:50:04,VALID,916.108,VALID,0,VALID,96.8555,VALID,0,VALID,20.795,VALID,218,VALID,0,
2013-10-18, 02:51:04,VALID,916.126,VALID,0,VALID,96.8479,VALID,0,VALID,20.7755,VALID,218,VALID,0,
2013-10-18, 02:52:04,VALID,916.135,VALID,0,VALID,96.8631,VALID,0,VALID,20.795,VALID,218,VALID,0,
2013-10-18, 02:53:04,VALID,916.138,VALID,0,VALID,96.8479,VALID,0,VALID,20.8145,VALID,218,VALID,0,
2013-10-18, 02:54:04,VALID,916.13,VALID,0,VALID,96.8479,VALID,0,VALID,20.8145,VALID,218,VALID,0,
2013-10-18, 02:55:04,VALID,916.134,VALID,0,VALID,96.8631,VALID,0,VALID,20.834,VALID,218,VALID,0,
2013-10-18, 02:56:04,VALID,916.109,VALID,0,VALID,96.8403,VALID,0,VALID,20.834,VALID,218,VALID,0,
2013-10-18, 02:57:04,VALID,916.107,VALID,0,VALID,96.8479,VALID,0,VALID,20.834,VALID,218,VALID,0,
2013-10-18, 02:58:04,VALID,916.092,VALID,0,VALID,96.8784,VALID,0,VALID,20.834,VALID,218,VALID,0,
2013-10-18, 02:59:04,VALID,916.072,VALID,0,VALID,96.8784,VALID,0,VALID,20.8145,VALID,218,VALID,0,
2013-10-18, 03:00:04,VALID,916.096,VALID,0,VALID,96.8631,VALID,0,VALID,20.8145,VALID,218,VALID,0,
2013-10-18, 03:01:04,VALID,916.108,VALID,0,VALID,96.8707,VALID,0,VALID,20.8535,VALID,218,VALID,0,
2013-10-18, 03:02:04,VALID,916.182,VALID,0,VALID,96.8479,VALID,0,VALID,20.8535,VALID,218,VALID,0,
2013-10-18, 03:03:04,VALID,916.179,VALID,0,VALID,96.8555,VALID,0,VALID,20.873,VALID,218,VALID,0,
2013-10-18, 03:04:04,VALID,916.218,VALID,0,VALID,96.8479,VALID,0,VALID,20.8535,VALID,218,VALID,0,
2013-10-18, 03:05:04,VALID,916.258,VALID,0,VALID,96.8631,VALID,0,VALID,20.834,VALID,60,VALID,0,
2013-10-18, 03:06:04,VALID,916.268,VALID,0,VALID,96.8403,VALID,0,VALID,20.8145,VALID,56,VALID,0,
2013-10-18, 03:07:04,VALID,916.282,VALID,0,VALID,96.8784,VALID,0,VALID,20.795,VALID,56,VALID,0,
2013-10-18, 03:08:04,VALID,916.284,VALID,0,VALID,96.8707,VALID,0,VALID,20.8145,VALID,56,VALID,0,
2013-10-18, 03:09:04,VALID,916.294,VALID,0,VALID,96.8403,VALID,0,VALID,20.8145,VALID,18,VALID,0,
2013-10-18, 03:10:04,VALID,916.311,VALID,0,VALID,96.8784,VALID,0,VALID,20.7755,VALID,18,VALID,0,
2013-10-18, 03:11:04,VALID,916.335,VALID,0,VALID,96.8784,VALID,0,VALID,20.756,VALID,18,VALID,0,
2013-10-18, 03:12:04,VALID,916.337,VALID,0,VALID,96.8631,VALID,0,VALID,20.7365,VALID,18,VALID,0,
2013-10-18, 03:13:04,VALID,916.331,VALID,0,VALID,96.8784,VALID,0,VALID,20.7365,VALID,18,VALID,0,
2013-10-18, 03:14:04,VALID,916.324,VALID,0,VALID,96.8784,VALID,0,VALID,20.7365,VALID,18,VALID,0,
2013-10-18, 03:15:04,VALID,916.326,VALID,0,VALID,96.8631,VALID,0,VALID,20.7365,VALID,18,VALID,0,
2013-10-18, 03:16:04,VALID,916.292,VALID,0,VALID,96.886,VALID,0,VALID,20.7365,VALID,18,VALID,0,
2013-10-18, 03:17:04,VALID,916.282,VALID,0,VALID,96.8707,VALID,0,VALID,20.7365,VALID,18,VALID,0,
2013-10-18, 03:18:04,VALID,916.277,VALID,0,VALID,96.886,VALID,0,VALID,20.756,VALID,18,VALID,0,
2013-10-18, 03:19:04,VALID,916.32,VALID,0,VALID,96.886,VALID,0,VALID,20.7365,VALID,18,VALID,0,
2013-10-18, 03:20:04,VALID,916.321,VALID,0,VALID,96.886,VALID,0,VALID,20.756,VALID,18,VALID,0,
2013-10-18, 03:21:04,VALID,916.328,VALID,0,VALID,96.886,VALID,0,VALID,20.756,VALID,18,VALID,0,
2013-10-18, 03:22:04,VALID,916.322,VALID,0,VALID,96.8631,VALID,0,VALID,20.7755,VALID,18,VALID,0,
2013-10-18, 03:23:04,VALID,916.335,VALID,0,VALID,96.8784,VALID,0,VALID,20.795,VALID,18,VALID,0,
2013-10-18, 03:24:04,VALID,916.339,VALID,0,VALID,96.8784,VALID,0,VALID,20.8145,VALID,18,VALID,0,
2013-10-18, 03:25:04,VALID,916.341,VALID,0,VALID,96.8707,VALID,0,VALID,20.8145,VALID,18,VALID,0,
2013-10-18, 03:26:04,VALID,916.349,VALID,0,VALID,96.8631,VALID,0,VALID,20.834,VALID,18,VALID,0,
2013-10-18, 03:27:04,VALID,916.368,VALID,0,VALID,96.8784,VALID,0,VALID,20.8145,VALID,18,VALID,0,
2013-10-18, 03:28:04,VALID,916.34,VALID,0,VALID,96.8784,VALID,0,VALID,20.8145,VALID,18,VALID,0,
2013-10-18, 03:29:04,VALID,916.332,VALID,0,VALID,96.8631,VALID,0,VALID,20.7755,VALID,18,VALID,0,
2013-10-18, 03:30:04,VALID,916.346,VALID,0,VALID,96.8784,VALID,0,VALID,20.756,VALID,18,VALID,0,
2013-10-18, 03:31:04,VALID,916.368,VALID,0,VALID,96.8936,VALID,0,VALID,20.756,VALID,18,VALID,0,
2013-10-18, 03:32:04,VALID,916.351,VALID,0,VALID,96.886,VALID,0,VALID,20.756,VALID,18,VALID,0,
2013-10-18, 03:33:04,VALID,916.372,VALID,0,VALID,96.8784,VALID,0,VALID,20.7755,VALID,18,VALID,0,
2013-10-18, 03:34:04,VALID,916.368,VALID,0,VALID,96.9012,VALID,0,VALID,20.795,VALID,18,VALID,0,
2013-10-18, 03:35:04,VALID,916.337,VALID,0,VALID,96.886,VALID,0,VALID,20.7755,VALID,18,VALID,0,
2013-10-18, 03:36:04,VALID,916.348,VALID,0,VALID,96.886,VALID,0,VALID,20.795,VALID,18,VALID,0,
2013-10-18, 03:37:04,VALID,916.289,VALID,0,VALID,96.8936,VALID,0,VALID,20.8129,VALID,18,VALID,0,
2013-10-18, 03:38:04,VALID,916.309,VALID,0,VALID,96.8784,VALID,0,VALID,20.8145,VALID,18,VALID,0,
2013-10-18, 03:39:04,VALID,916.303,VALID,0,VALID,96.8936,VALID,0,VALID,20.7755,VALID,18,VALID,0,
2013-10-18, 03:40:04,VALID,916.3,VALID,0,VALID,96.8784,VALID,0,VALID,20.7544,VALID,18,VALID,0,
2013-10-18, 03:41:04,VALID,916.302,VALID,0,VALID,96.9089,VALID,0,VALID,20.756,VALID,18,VALID,0,
2013-10-18, 03:42:04,VALID,916.309,VALID,0,VALID,96.886,VALID,0,VALID,20.756,VALID,18,VALID,0,
2013-10-18, 03:43:04,VALID,916.297,VALID,0,VALID,96.8936,VALID,0,VALID,20.795,VALID,18,VALID,0,
2013-10-18, 03:44:04,VALID,916.257,VALID,0,VALID,96.8936,VALID,0,VALID,20.7739,VALID,18,VALID,0,
2013-10-18, 03:45:04,VALID,916.238,VALID,0,VALID,96.8936,VALID,0,VALID,20.7755,VALID,18,VALID,0,
2013-10-18, 03:46:04,VALID,916.232,VALID,0,VALID,96.9089,VALID,0,VALID,20.7544,VALID,18,VALID,0,
2013-10-18, 03:47:04,VALID,916.248,VALID,0,VALID,96.8936,VALID,0,VALID,20.756,VALID,18,VALID,0,
2013-10-18, 03:48:04,VALID,916.22,VALID,0,VALID,96.9012,VALID,0,VALID,20.756,VALID,18,VALID,0,
2013-10-18, 03:49:04,VALID,916.199,VALID,0,VALID,96.9089,VALID,0,VALID,20.7755,VALID,18,VALID,0,
2013-10-18, 03:50:04,VALID,916.185,VALID,0,VALID,96.9012,VALID,0,VALID,20.7755,VALID,18,VALID,0,
2013-10-18, 03:51:04,VALID,916.201,VALID,0,VALID,96.9165,VALID,0,VALID,20.7349,VALID,18,VALID,0,
2013-10-18, 03:52:04,VALID,916.172,VALID,0,VALID,96.9241,VALID,0,VALID,20.6975,VALID,18,VALID,0,
2013-10-18, 03:53:04,VALID,916.168,VALID,0,VALID,96.9089,VALID,0,VALID,20.678,VALID,18,VALID,0,
2013-10-18, 03:54:04,VALID,916.158,VALID,0,VALID,96.9165,VALID,0,VALID,20.6975,VALID,18,VALID,0,
2013-10-18, 03:55:04,VALID,916.152,VALID,0,VALID,96.9089,VALID,0,VALID,20.678,VALID,18,VALID,0,
2013-10-18, 03:56:04,VALID,916.11,VALID,0,VALID,96.9089,VALID,0,VALID,20.6569,VALID,18,VALID,0,
2013-10-18, 03:57:04,VALID,916.091,VALID,0,VALID,96.9165,VALID,0,VALID,20.678,VALID,18,VALID,0,
2013-10-18, 03:58:04,VALID,916.061,VALID,0,VALID,96.8936,VALID,0,VALID,20.678,VALID,18,VALID,0,
2013-10-18, 03:59:04,VALID,916.051,VALID,0,VALID,96.9165,VALID,0,VALID,20.678,VALID,18,VALID,0,
2013-10-18, 04:00:04,VALID,916.051,VALID,0,VALID,96.9165,VALID,0,VALID,20.6585,VALID,18,VALID,0,
2013-10-18, 04:01:04,VALID,915.985,VALID,0,VALID,96.9089,VALID,0,VALID,20.678,VALID,18,VALID,0,
2013-10-18, 04:02:04,VALID,915.956,VALID,0,VALID,96.9012,VALID,0,VALID,20.678,VALID,18,VALID,0,